STARLINK-35905, 67048

Orbit data source: Space-Track

STARLINK-35905, 67048 is a payload satellite owned by SpaceX/Seattle (US) in LEO that was launched on Thu, 11 Dec 2025 UTC via an FALCON 9 launch vehicle from the Air Force Eastern Test Range (AFETR). Payload-class satellites include a variety of spacecraft equipped with specific instruments for various scientific and technological missions. These include communications satellites like Starlink; space stations such as the ISS; scientific satellites like the Hubble; Earth observation satellites from companies like Planet Labs, Umbra, and HawkEye 360; GPS; miniature CubeSats for education and research; and military/defense satellites.

Loading next visibility...
Identifier
67048, 2025-294U
Orbit
LEO
Country
Flag of USUS
Related business
Manufacturer
SpaceX/Seattle
Mission
Operational Commercial Communications
Bus & Motor
STARLINK V2MO, Unknown motor
Mass
575 kg wet, ~530 kg dry
Launch date (UTC)
2025-12-11 (6 months ago)
Launch vehicle
FALCON 9
Launch site
Air Force Eastern Test Range (AFETR)
Object type
Payload
Rocket body
Debris
Shape & HBR
Box + 2 Pan, 17.7 m
Radar Cross Section
36.964 m², Large (>1 m²)

Expand to show TLE details & history
Last TLE update: 13 hours ago

TLE from 13 hours ago
0 STARLINK-35905
1 67048U 25294U   26171.31543904  .00012446  00000-0  46086-3 0  9997
2 67048  42.9978 178.5719 0000971 269.5563  90.5178 15.27593563 30499
Epoch: 2026-06-20T07:34Z
TLE epoch observation values (Epoch: 2026-06-20T07:34:13.933Z)
Latitude
0.00005°
Longitude
156.48207°
Altitude
482.79 km
Speed
7.626 km/s
True Right ascension
11h 54m 17s
True Declination
0° 00' 00"
Sunlit
Object was in daylight at epoch
Visualization orbit readout
Latitude
Unknown
Longitude
Unknown
Altitude
Unknown
Speed
Unknown
Apparent Right ascension
Unknown
Apparent Declination
Unknown
Sunlit
N/A
Visualization observer readout
Local Sidereal Time
07:15:08
Azimuth
Unknown
Elevation
Unknown
Doppler factor
Unknown
Orbital elements
Apogee altitude
485.62 km
Perigee altitude
484.288 km
Semi-major axis
6,863.091 km
Eccentricity
0.0001
Inclination
42.9978°
RAAN
178.5719°
Arg. of periapsis
269.5563°
True anomaly
90.52893°
Mean anomaly
90.5178°
Eccentric anomaly
90.52336°
Mean motion
3.81736 °/min
Orbital period
94.31 mins
BSTAR
0.00046086
Loading maneuver chart data...
Computing Atmospheric mass density...
Loading historical data...
Loading historical data...
Loading historical data...
Loading historical data...
Loading historical data...
Loading historical data...
Loading historical data...

Documentation

Showing up to 5 results
|